星链-6260 (STARLINK-6260 )

导读

STARLINK-6260是美国SpaceX公司星链星座的一员,于2023年5月4日发射升空,归属美国。星链作为全球规模最大的低轨卫星互联网星座,计划最终部署约4.2万颗卫星,这颗卫星运行在近地轨道,配备霍尔推进器和相控阵天线,可自主规避空间碰撞,为全球提供低时延互联网接入服务,助力偏远地区网络覆盖。

基本信息
目录编号:
56416
目录名称:
STARLINK-6260
国际标识:
2023-061AU
轨道中心:
EARTH
卫星名称:
星链-6260
卫星全名:
星链-6260 (STARLINK-6260 )
卫星状态:
在轨 (已飞行1137 天)
发射日期:
2023-05-04 UTC
国别 :
美国 (US)
星等 :
--
轨道信息
数据来源 国际轨道数据
星历时间: 2026-06-11T15:17:37+0800
3天前
查看轨道信息
半长轴: 6861.182km
偏心率: 0.0001089
轨道倾角: 43.004°
近地点辐角 255.819°
升交点赤经 11.141°
平近点角 104.254°
近地点: 482.297km
远地点: 483.793km
周期: 94.267分钟
每日圈数: 15.275817
详细信息
固有亮度:
5
最大亮度:
2.5
卫星平台:
Starlink v1.5
覆盖范围:
全球
运营商:
太空探索技术公司
运营商所在国:
美国
制造商(研发单位):
太空探索技术公司
制造商所在国:
美国
使用方式:
暂无
卫星简介
星链(Starlink)计划是由太空探索技术公司(SpaceX)提出的一个巨型低轨卫星互联网星座项目,计划在2019年至2024年间在太空搭建由约1.2万颗卫星组成的“星链”网络,其中1584颗将部署在地球上空550千米处的近地轨道,并从2020年开始工作。该卫星仍在工作。
2D轨道图
3D轨道图
轨道高度分析图
轨道倾角分析图
轨道综合分析图
查看轨道综合分析图